• în România
  • Lista ţărilor
  • Pe 7 zile
  • Temperatura apei
  • Hartă satelitară
  • Meteo pe hartă
  • Widget-uri
  • user-avatar
    Intrare

    Meteo pe oră la Louhi

    Astăzi, 18 Octombrie, Joi

    Timp Temperatura Precipitaţii Vânt Presiune Umiditate
    00:00 +5°C° 0.6 mm 4 m/s 747 mmHg 94%
    01:00 +6°C° 0.6 mm 4 m/s 746 mmHg 95%
    02:00 +7°C° 0 mm 4 m/s 745 mmHg 94%
    03:00 +7°C° 0.2 mm 4 m/s 745 mmHg 94%
    04:00 +7°C° 0.2 mm 4 m/s 745 mmHg 93%
    05:00 +7°C° 0.2 mm 4 m/s 744 mmHg 92%
    06:00 +7°C° 0 mm 4 m/s 745 mmHg 92%
    07:00 +7°C° 0 mm 4 m/s 745 mmHg 92%
    08:00 +6°C° 0 mm 4 m/s 745 mmHg 91%
    09:00 +8°C° 0 mm 3 m/s 745 mmHg 89%
    10:00 +8°C° 0 mm 3 m/s 745 mmHg 86%
    11:00 +8°C° 0 mm 3 m/s 745 mmHg 84%
    12:00 +8°C° 0 mm 3 m/s 745 mmHg 84%
    13:00 +8°C° 0 mm 3 m/s 745 mmHg 84%
    14:00 +8°C° 0 mm 3 m/s 745 mmHg 84%
    15:00 +8°C° 0.1 mm 3 m/s 745 mmHg 86%
    16:00 +7°C° 0.1 mm 3 m/s 744 mmHg 89%
    17:00 +7°C° 0.1 mm 3 m/s 744 mmHg 91%
    18:00 +5°C° 0.3 mm 3 m/s 744 mmHg 92%
    19:00 +5°C° 0.3 mm 3 m/s 744 mmHg 92%
    20:00 +5°C° 0.3 mm 3 m/s 744 mmHg 92%
    21:00 +4°C° 0 mm 3 m/s 744 mmHg 92%
    22:00 +4°C° 0 mm 3 m/s 744 mmHg 92%
    23:00 +3°C° 0 mm 4 m/s 744 mmHg 92%

    Mâine, 19 Octombrie, Vineri

    Timp Temperatura Precipitaţii Vânt Presiune Umiditate
    00:00 +3°C° 0 mm 4 m/s 743 mmHg 92%
    01:00 +3°C° 0 mm 4 m/s 743 mmHg 91%
    02:00 +1°C° 0 mm 4 m/s 743 mmHg 91%
    03:00 +1°C° 0 mm 4 m/s 743 mmHg 91%
    04:00 +3°C° 0 mm 4 m/s 743 mmHg 91%
    05:00 +3°C° 0 mm 4 m/s 742 mmHg 91%
    06:00 +3°C° 0.1 mm 3 m/s 742 mmHg 91%
    07:00 +3°C° 0.1 mm 3 m/s 742 mmHg 90%
    08:00 +4°C° 0.1 mm 3 m/s 742 mmHg 90%
    09:00 +4°C° 0.1 mm 3 m/s 743 mmHg 89%
    10:00 +5°C° 0.1 mm 2 m/s 743 mmHg 89%
    11:00 +6°C° 0.1 mm 2 m/s 743 mmHg 88%
    12:00 +6°C° 0.1 mm 2 m/s 743 mmHg 88%
    13:00 +5°C° 0.1 mm 3 m/s 744 mmHg 88%
    14:00 +5°C° 0.1 mm 3 m/s 744 mmHg 88%
    15:00 +4°C° 0.1 mm 3 m/s 745 mmHg 89%
    16:00 +4°C° 0.1 mm 3 m/s 745 mmHg 90%
    17:00 +3°C° 0.1 mm 3 m/s 746 mmHg 90%
    18:00 +3°C° 0 mm 3 m/s 747 mmHg 91%
    19:00 +2°C° 0 mm 3 m/s 747 mmHg 91%
    20:00 +2°C° 0 mm 3 m/s 748 mmHg 91%
    21:00 +1°C° 0 mm 3 m/s 748 mmHg 92%
    22:00 +1°C° 0 mm 3 m/s 749 mmHg 92%
    23:00 +1°C° 0 mm 3 m/s 749 mmHg 92%

    Poimâine, 20 Octombrie, Sâmbătă

    Timp Temperatura Precipitaţii Vânt Presiune Umiditate
    00:00 +2°C° 0 mm 2 m/s 750 mmHg 93%
    01:00 +1°C° 0 mm 2 m/s 750 mmHg 93%
    02:00 +1°C° 0 mm 2 m/s 750 mmHg 94%
    03:00 +1°C° 0 mm 2 m/s 751 mmHg 94%
    04:00 +1°C° 0 mm 2 m/s 751 mmHg 94%
    05:00 +2°C° 0 mm 1 m/s 751 mmHg 94%
    06:00 +2°C° 0 mm 1 m/s 751 mmHg 94%
    07:00 +2°C° 0 mm 1 m/s 752 mmHg 94%
    08:00 +2°C° 0 mm 1 m/s 752 mmHg 94%
    09:00 +3°C° 0 mm 1 m/s 752 mmHg 91%
    10:00 +4°C° 0 mm 1 m/s 752 mmHg 87%
    11:00 +5°C° 0 mm 1 m/s 753 mmHg 84%
    12:00 +5°C° 0 mm 1 m/s 753 mmHg 84%
    13:00 +4°C° 0 mm 0 m/s 753 mmHg 85%
    14:00 +5°C° 0 mm 0 m/s 753 mmHg 85%
    15:00 +4°C° 0 mm 0 m/s 753 mmHg 88%
    16:00 +3°C° 0 mm 0 m/s 754 mmHg 90%
    17:00 +2°C° 0 mm 0 m/s 754 mmHg 93%
    18:00 +3°C° 0 mm 1 m/s 754 mmHg 93%
    19:00 +3°C° 0 mm 1 m/s 754 mmHg 93%
    20:00 +3°C° 0 mm 1 m/s 754 mmHg 94%
    21:00 +2°C° 0 mm 1 m/s 754 mmHg 94%
    22:00 +2°C° 0 mm 1 m/s 754 mmHg 94%
    23:00 +2°C° 0 mm 1 m/s 754 mmHg 94%

    21 Octombrie, Duminică

    Timp Temperatura Precipitaţii Vânt Presiune Umiditate
    00:00 +1°C° 0 mm 2 m/s 754 mmHg 94%
    01:00 +1°C° 0 mm 2 m/s 754 mmHg 94%
    02:00 +1°C° 0 mm 2 m/s 754 mmHg 94%
    03:00 +1°C° 0 mm 2 m/s 754 mmHg 94%
    04:00 -1°C° 0 mm 2 m/s 754 mmHg 95%
    05:00 -1°C° 0 mm 3 m/s 754 mmHg 95%
    06:00 0°C° 0 mm 3 m/s 753 mmHg 95%
    07:00 0°C° 0 mm 3 m/s 753 mmHg 95%
    08:00 -1°C° 0 mm 4 m/s 753 mmHg 95%
    09:00 0°C° 0 mm 4 m/s 752 mmHg 93%
    10:00 +1°C° 0 mm 5 m/s 752 mmHg 91%
    11:00 +1°C° 0 mm 5 m/s 751 mmHg 89%
    12:00 +2°C° 0.1 mm 5 m/s 750 mmHg 87%
    13:00 +2°C° 0.1 mm 6 m/s 749 mmHg 86%
    14:00 +2°C° 0.1 mm 6 m/s 749 mmHg 85%
    15:00 +2°C° 0.6 mm 6 m/s 748 mmHg 85%
    16:00 +3°C° 0.6 mm 7 m/s 747 mmHg 85%
    17:00 +3°C° 0.6 mm 7 m/s 747 mmHg 85%
    18:00 +3°C° 0.2 mm 7 m/s 746 mmHg 85%
    19:00 +3°C° 0.2 mm 7 m/s 745 mmHg 84%
    20:00 +3°C° 0.2 mm 7 m/s 745 mmHg 83%
    21:00 +3°C° 0 mm 6 m/s 745 mmHg 84%
    22:00 +3°C° 0 mm 6 m/s 744 mmHg 86%
    23:00 +3°C° 0 mm 6 m/s 744 mmHg 87%

    22 Octombrie, Luni

    Timp Temperatura Precipitaţii Vânt Presiune Umiditate
    00:00 +3°C° 0 mm 5 m/s 744 mmHg 89%
    01:00 +4°C° 0 mm 4 m/s 743 mmHg 91%
    02:00 +3°C° 0 mm 4 m/s 743 mmHg 93%
    03:00 +3°C° 0.2 mm 3 m/s 742 mmHg 94%
    04:00 +3°C° 0.2 mm 3 m/s 741 mmHg 95%
    05:00 +3°C° 0.2 mm 3 m/s 740 mmHg 96%
    06:00 +4°C° 0.7 mm 2 m/s 739 mmHg 96%
    07:00 +3°C° 0.7 mm 2 m/s 737 mmHg 97%
    08:00 +3°C° 0.7 mm 2 m/s 736 mmHg 97%
    09:00 +4°C° 1.1 mm 2 m/s 735 mmHg 96%
    10:00 +3°C° 1.1 mm 3 m/s 734 mmHg 96%
    11:00 +3°C° 1.1 mm 3 m/s 732 mmHg 95%
    12:00 +3°C° 1.5 mm 4 m/s 731 mmHg 94%
    13:00 +2°C° 1.5 mm 6 m/s 731 mmHg 93%
    14:00 +3°C° 1.5 mm 7 m/s 730 mmHg 91%
    15:00 +2°C° 0.6 mm 7 m/s 730 mmHg 88%
    16:00 +2°C° 0.6 mm 7 m/s 731 mmHg 84%
    17:00 +1°C° 0.6 mm 8 m/s 731 mmHg 81%
    18:00 +1°C° 0 mm 8 m/s 732 mmHg 79%
    19:00 0°C° 0 mm 7 m/s 733 mmHg 78%
    20:00 0°C° 0 mm 7 m/s 734 mmHg 76%
    21:00 -1°C° 0 mm 6 m/s 735 mmHg 77%
    22:00 -1°C° 0 mm 6 m/s 735 mmHg 78%
    23:00 -2°C° 0 mm 6 m/s 736 mmHg 80%

    23 Octombrie, Marţi

    Timp Temperatura Precipitaţii Vânt Presiune Umiditate
    00:00 -1°C° 0 mm 5 m/s 736 mmHg 80%
    01:00 -1°C° 0 mm 5 m/s 736 mmHg 81%
    02:00 -1°C° 0 mm 5 m/s 736 mmHg 82%
    03:00 -1°C° 0 mm 5 m/s 736 mmHg 82%
    04:00 -1°C° 0 mm 5 m/s 737 mmHg 82%
    05:00 -1°C° 0 mm 6 m/s 737 mmHg 81%
    06:00 -1°C° 0 mm 5 m/s 737 mmHg 83%
    07:00 -1°C° 0 mm 5 m/s 737 mmHg 84%
    08:00 -1°C° 0 mm 5 m/s 737 mmHg 86%
    09:00 -1°C° 0 mm 6 m/s 737 mmHg 83%
    10:00 -1°C° 0 mm 6 m/s 738 mmHg 81%
    11:00 +1°C° 0 mm 6 m/s 738 mmHg 78%
    12:00 +1°C° 0 mm 6 m/s 739 mmHg 77%
    13:00 +1°C° 0 mm 6 m/s 739 mmHg 76%
    14:00 +1°C° 0 mm 6 m/s 739 mmHg 75%
    15:00 +1°C° 0 mm 5 m/s 739 mmHg 77%
    16:00 +1°C° 0 mm 5 m/s 739 mmHg 80%
    17:00 0°C° 0 mm 5 m/s 739 mmHg 83%
    18:00 0°C° 0 mm 5 m/s 739 mmHg 82%
    19:00 0°C° 0 mm 5 m/s 739 mmHg 82%
    20:00 +1°C° 0 mm 5 m/s 739 mmHg 82%
    21:00 0°C° 0 mm 5 m/s 739 mmHg 84%
    22:00 0°C° 0 mm 5 m/s 739 mmHg 85%
    23:00 0°C° 0 mm 5 m/s 739 mmHg 87%
    Arată mai mult